Wind_Speed
41 41 40 40 40 40 40 40 40 40 40 40 40 41 43 44 44 45 47 48 47 48 51 51 51 54 56 55 53 52 56 58 55 54 56 58 59 61 62 62 63 64 65 66 67 67 68 69 70 71 71 72 72 73 74 75 75 75 76 77 78 79 80 81 83 84 86 87 87 88 89 90 91 93 94 95 96 97 98 100 102 103 105 106 108 110
39 39 39 38 38 38 38 38 38 39 39 39 40 41 42 44 44 44 47 47 46 47 49 49 50 53 54 54 53 51 52 56 55 52 54 56 57 58 59 59 61 62 62 63 64 65 66 67 68 68 69 69 70 71 71 72 72 72 73 74 74 76 77 79 80 82 83 83 84 85 86 87 88 90 91 91 93 94 96 97 99 100 101 103 104 106
38 38 38 37 37 37 38 38 38 39 39 40 41 42 42 43 43 44 46 46 46 46 48 47 48 52 52 51 52 49 47 51 52 51 52 54 55 55 56 57 58 59 59 60 61 61 62 63 64 64 64 65 66 66 67 67 67 68 68 69 70 71 73 74 76 77 78 78 79 79 80 82 83 85 85 86 88 89 91 92 94 95 97 99 101 103
38 37 37 37 37 37 38 38 39 39 40 41 41 42 42 43 43 43 45 45 45 45 46 45 46 50 51 50 50 47 45 47 49 50 51 52 53 53 54 55 56 56 56 57 58 58 58 59 60 60 60 60 61 61 62 62 62 62 62 62 64 65 67 69 70 71 72 72 73 74 75 77 78 79 80 81 82 84 85 87 88 90 92 95 97 98
38 38 37 37 38 38 38 39 40 40 41 41 42 42 42 43 43 43 43 44 44 44 45 43 43 47 50 50 49 46 42 42 45 48 50 51 51 51 52 53 54 54 54 54 55 55 55 56 57 57 57 57 58 58 58 58 58 57 57 58 59 61 63 64 66 66 67 68 69 70 72 73 74 75 76 77 78 80 82 83 85 86 88 91 93 95
37 38 38 38 38 38 39 40 40 40 41 42 41 42 42 42 42 42 42 43 43 44 45 43 40 43 49 51 49 46 43 41 41 45 48 49 49 51 51 52 52 52 52 52 52 52 53 54 55 55 55 56 56 56 56 56 56 56 56 56 57 58 60 62 64 65 65 66 67 68 69 70 71 73 74 75 76 77 79 80 82 84 86 88 90 92
38 38 38 38 38 39 39 40 40 41 41 42 42 42 42 42 43 43 42 43 43 44 46 45 40 39 46 52 51 47 46 44 42 42 44 46 47 49 50 51 51 51 51 51 51 52 52 54 55 54 55 55 56 56 56 56 56 57 57 57 58 59 61 62 63 64 65 65 67 68 69 69 71 72 73 75 76 77 78 80 81 83 84 85 88 90
38 38 39 39 39 39 40 41 41 42 42 42 43 43 43 43 43 43 43 43 43 44 46 47 43 38 43 51 51 49 50 47 45 44 43 45 46 48 50 50 51 51 51 51 52 53 53 54 55 55 55 56 57 58 58 58 59 59 59 59 60 61 62 64 65 65 66 67 68 69 70 71 72 73 74 76 77 78 79 81 82 83 84 85 86 88
39 39 40 40 40 40 41 42 42 43 43 44 44 44 44 44 44 44 44 45 43 45 47 48 46 42 44 51 50 49 53 50 47 46 45 46 47 48 50 51 52 52 52 53 54 54 54 54 56 57 57 58 59 60 61 61 62 62 62 62 63 64 65 66 67 67 68 69 70 71 72 73 74 75 76 78 79 80 81 82 83 84 85 86 87 87
39 40 40 41 41 42 42 43 43 44 44 45 46 46 46 46 46 46 46 46 45 45 48 49 48 44 45 53 52 49 53 53 49 47 46 49 50 50 52 54 54 54 53 55 57 57 56 55 57 59 60 61 61 62 63 64 64 65 65 66 66 66 67 68 69 69 70 71 72 73 74 75 76 77 78 79 81 82 82 83 85 86 87 88 88 88
39 39 40 41 42 42 43 44 45 46 46 47 47 47 48 48 48 48 48 48 47 46 49 50 51 47 46 54 57 53 54 55 52 48 47 50 52 52 56 58 57 56 57 58 60 61 59 58 59 60 62 63 63 64 65 66 67 67 67 68 68 69 69 70 71 72 72 73 74 75 76 77 78 79 79 81 82 83 84 85 87 88 89 90 90 91
39 39 40 41 42 42 44 44 45 46 47 48 49 49 49 50 49 49 50 51 49 49 49 50 52 51 50 55 61 60 58 56 54 51 49 50 52 54 59 61 59 59 60 62 64 64 63 61 62 62 63 64 65 66 67 68 69 69 69 70 70 71 72 73 73 74 74 75 76 76 77 78 79 80 81 82 83 84 86 87 89 90 91 92 93 93
39 40 41 41 42 43 44 45 46 46 48 49 50 50 50 51 49 49 51 52 51 51 51 51 54 54 55 59 63 66 66 61 56 55 52 50 52 57 60 61 61 61 62 65 67 67 67 65 65 65 65 66 67 69 70 71 71 71 72 72 73 73 74 75 75 76 76 76 77 77 78 79 80 81 83 84 85 86 88 90 91 92 93 94 94 95
40 41 42 43 43 44 45 46 46 47 49 51 51 52 52 53 51 50 52 53 53 53 51 52 54 55 58 63 67 70 72 67 61 59 56 52 53 57 60 61 63 64 64 66 69 71 70 69 69 69 69 69 70 71 72 73 74 74 74 74 75 75 75 76 76 76 76 76 77 78 79 80 81 83 84 85 87 88 90 92 93 94 94 95 96 97
40 41 42 43 44 45 46 46 46 46 48 51 53 53 54 55 53 51 52 53 54 53 52 53 55 56 59 64 69 73 74 72 66 63 61 57 56 57 59 62 64 65 65 68 70 72 73 73 72 72 72 72 72 73 73 74 74 75 75 75 75 75 76 76 76 76 77 77 78 79 80 81 83 84 86 87 89 90 92 93 94 95 95 96 98 99
42 42 42 43 45 46 47 48 48 47 47 50 52 53 54 55 54 52 51 53 53 50 50 53 54 56 59 63 70 74 73 72 69 65 63 60 58 58 59 62 64 65 66 68 71 73 73 73 73 73 73 72 73 73 73 74 74 74 75 75 75 75 75 76 76 77 77 78 79 80 82 83 85 86 88 89 91 92 93 94 95 96 97 98 99 100
42 43 43 43 43 46 47 48 49 48 48 50 52 53 53 54 54 53 51 52 53 48 46 49 51 53 57 62 67 71 71 71 69 67 65 62 60 60 60 61 63 64 66 68 70 72 72 73 73 73 72 72 72 72 73 73 73 74 74 75 75 75 75 76 76 77 78 79 80 82 84 85 87 89 90 91 92 93 94 95 96 97 98 99 100 101
39 41 44 43 41 43 45 46 47 48 47 48 50 52 52 53 53 53 51 52 52 48 43 46 49 50 57 63 64 65 67 68 68 66 63 62 60 60 60 60 61 63 65 67 68 70 71 71 72 72 72 72 72 72 72 72 73 74 74 74 75 75 76 77 77 78 79 81 82 84 85 87 89 90 91 92 93 94 95 96 97 97 98 100 101 102
37 38 42 44 42 41 42 42 43 44 44 44 45 47 48 49 49 49 49 50 51 47 43 44 45 47 57 66 62 59 63 65 66 65 61 59 59 58 58 58 59 61 63 64 66 67 69 70 70 71 71 71 71 71 72 72 73 74 75 75 75 76 77 78 79 80 81 82 84 86 87 89 91 92 93 93 94 95 96 96 97 98 99 100 101 102
39 38 39 43 44 42 43 43 42 42 43 44 45 45 46 47 46 45 45 46 46 44 40 41 39 41 55 66 61 57 60 63 63 62 61 60 59 58 58 58 58 59 61 62 64 65 67 68 69 70 70 71 72 72 72 73 74 75 76 76 76 77 78 79 81 82 83 85 87 89 90 91 93 94 94 95 95 96 96 97 98 99 100 101 102 102
42 42 42 45 47 47 47 48 47 46 45 47 50 50 50 50 50 47 45 46 46 43 40 37 29 30 50 64 61 58 60 61 61 60 59 60 60 60 60 59 59 60 61 62 63 65 66 68 69 70 71 72 73 74 74 75 76 77 77 77 77 79 80 82 83 85 86 88 90 92 93 94 95 96 96 97 96 96 97 98 98 100 100 101 101 100
45 44 44 46 49 50 50 51 51 51 49 50 52 54 54 54 56 54 50 49 49 46 47 41 24 26 46 60 60 60 62 62 60 59 59 60 61 62 62 62 62 62 63 64 65 66 67 69 70 71 72 73 74 75 76 76 77 78 78 79 80 81 83 85 87 88 90 91 92 95 96 97 98 98 98 98 97 97 98 99 99 100 100 99 98 97
48 46 45 46 49 51 52 53 53 52 52 52 53 56 58 57 58 60 58 57 53 50 54 47 28 31 49 56 57 61 64 63 60 57 57 59 61 62 63 63 65 65 65 66 67 68 69 70 71 72 73 75 75 76 77 78 79 80 80 82 83 84 86 87 89 91 92 94 95 97 99 100 100 100 100 99 99 99 99 100 100 99 98 97 95 94
52 50 48 47 49 50 52 55 56 55 55 55 55 58 61 60 60 61 61 64 60 56 60 55 39 41 52 55 58 64 66 64 60 56 56 57 59 61 63 64 65 66 67 68 69 70 71 72 73 74 75 76 77 79 80 81 82 83 84 85 87 88 89 90 92 93 95 96 98 99 101 101 101 101 100 100 100 100 100 100 99 97 96 94 93 92
56 55 54 52 51 51 53 56 58 58 57 56 57 60 62 64 66 64 64 66 63 61 64 60 53 52 56 58 63 68 70 67 62 60 60 61 62 63 65 66 67 68 70 71 73 74 74 75 76 77 78 79 80 81 83 84 86 87 88 89 90 91 92 93 95 96 98 99 100 100 101 101 101 101 101 101 101 100 100 98 96 95 93 92 91 90
59 59 60 60 58 56 57 59 61 61 59 58 59 62 63 66 69 69 69 68 66 66 63 60 62 60 56 61 69 73 75 72 68 68 68 67 68 69 70 70 70 72 74 76 77 78 78 79 80 80 81 82 84 84 85 87 89 90 91 92 93 94 95 96 98 99 100 101 101 101 101 101 101 101 102 102 101 100 98 95 94 92 91 90 90 89
62 60 63 66 63 61 61 63 66 66 63 61 62 63 65 68 70 73 73 70 71 74 66 59 67 65 55 60 71 76 78 76 73 75 75 74 74 73 74 74 74 76 78 80 81 82 82 83 83 84 85 86 87 87 88 90 91 93 94 95 96 97 98 99 99 100 101 101 100 100 101 101 101 102 102 101 100 97 95 93 92 91 90 89 89 89
66 62 64 69 67 63 63 65 68 69 66 63 64 65 67 73 75 77 75 71 76 83 72 64 71 70 60 65 74 78 79 77 76 78 79 79 80 79 78 77 76 78 80 82 83 84 85 86 86 87 88 89 90 90 91 93 94 96 96 97 98 99 99 99 99 100 100 101 101 101 102 103 103 103 102 100 97 95 93 91 90 90 89 89 88 89
72 66 66 71 68 63 64 67 69 68 66 64 65 67 72 78 82 81 78 75 81 87 80 74 76 72 68 75 81 81 81 81 80 81 82 84 84 84 84 82 82 82 82 82 84 85 87 88 88 89 90 91 92 93 94 95 96 97 97 98 99 99 99 99 99 99 101 101 102 102 103 103 102 101 99 97 95 93 91 90 89 89 89 88 89 89
76 71 70 73 71 63 64 69 70 68 67 65 66 70 76 83 86 85 82 82 86 89 86 84 82 75 75 84 87 85 85 85 85 85 86 87 87 87 87 87 88 88 86 85 85 86 87 88 89 90 91 92 93 94 95 96 97 97 97 98 98 98 99 99 99 101 102 103 103 103 103 102 100 98 96 94 93 91 90 90 89 89 89 89 89 90
77 76 74 77 76 67 66 73 73 71 71 68 67 73 80 85 86 86 87 88 90 92 92 91 89 83 82 88 90 89 88 88 88 88 89 89 89 88 88 89 90 90 89 88 87 86 87 88 90 91 91 92 93 94 95 96 96 97 97 98 98 99 100 100 101 102 103 104 104 103 101 99 97 95 94 92 91 90 90 90 89 89 89 90 90 91
79 79 78 82 82 74 72 78 77 75 75 71 71 78 83 85 86 87 89 91 94 97 96 95 93 91 90 92 92 92 91 90 90 90 90 90 89 88 88 88 88 88 90 90 89 88 87 88 89 90 91 92 93 94 95 96 96 97 98 99 99 100 101 102 103 104 104 103 102 101 99 96 95 94 93 91 90 90 90 90 90 90 90 90 91 91
81 83 83 87 88 81 79 83 83 81 78 75 77 83 84 85 88 89 90 93 97 99 99 98 97 96 96 96 94 93 92 91 91 92 92 91 90 89 88 88 88 89 89 90 90 90 88 88 89 91 91 93 93 94 96 96 97 98 99 100 101 102 103 103 103 103 102 101 100 98 96 94 94 93 92 90 90 90 91 91 90 90 90 90 91 91
84 86 87 90 92 87 85 88 89 87 83 82 85 88 88 89 92 92 93 96 99 100 100 99 99 98 98 98 97 95 93 92 92 92 92 93 93 92 90 89 89 91 91 91 92 92 91 91 92 93 94 94 95 97 98 98 99 100 101 102 102 103 103 103 102 101 100 99 97 95 94 93 93 92 91 90 90 90 91 91 90 90 90 90 90 91
88 90 91 93 95 93 90 92 95 93 90 91 93 92 92 94 95 96 98 99 101 103 102 101 100 99 99 99 98 97 95 93 92 92 94 96 96 95 93 92 92 93 93 94 94 95 96 96 96 96 97 97 98 99 100 100 101 102 102 102 102 101 101 100 99 99 98 97 95 93 93 93 92 91 90 90 90 91 91 91 90 90 90 90 90 90
92 95 96 97 98 98 97 98 100 98 96 98 99 97 97 98 98 99 101 102 103 104 104 104 103 102 102 101 100 99 97 95 92 92 95 98 97 96 95 94 94 94 95 95 96 97 98 99 99 99 99 99 100 100 100 100 100 101 101 100 99 98 98 97 97 97 96 95 93 92 92 92 91 90 91 91 91 91 91 90 90 90 89 89 89 89
96 98 100 101 101 101 102 103 103 102 101 101 101 100 100 100 101 102 102 102 103 104 104 104 104 103 103 102 101 100 98 96 92 91 94 97 96 95 95 94 95 95 95 95 95 96 97 98 99 99 98 99 99 99 99 98 98 98 98 97 96 96 95 96 96 96 95 93 92 92 92 91 90 90 91 90 90 90 90 89 89 89 88 88 88 88
98 100 102 103 103 103 105 106 105 104 104 103 102 100 100 101 102 103 104 103 102 103 103 103 102 102 101 100 100 99 98 96 92 90 92 94 94 94 94 93 93 94 94 94 95 95 95 96 96 97 97 97 97 97 97 96 96 96 95 95 94 94 94 95 95 94 93 92 92 92 91 90 90 90 90 90 90 89 89 88 88 87 87 87 87 86
100 101 103 104 103 104 106 107 106 106 106 104 102 100 99 100 102 104 105 102 100 102 103 101 100 100 100 99 99 97 97 95 92 89 91 93 93 93 93 92 92 92 92 93 94 95 95 95 95 95 96 96 96 95 95 95 95 95 94 94 93 93 94 94 94 93 92 92 92 91 89 89 89 89 89 89 89 88 87 87 87 86 86 86 85 84
101 102 102 103 103 103 105 105 105 105 106 104 101 100 99 99 101 104 104 101 99 100 102 101 101 100 100 100 99 98 97 97 94 91 91 92 92 93 93 93 92 92 92 92 93 94 94 94 95 95 95 95 95 95 95 95 95 94 93 93 92 92 93 93 92 91 91 91 90 89 88 88 88 88 88 88 87 86 86 86 86 85 84 84 83 81
102 101 101 101 101 101 102 103 102 104 104 103 101 101 100 100 102 104 104 102 100 100 100 101 101 101 101 100 100 98 97 97 98 96 93 93 92 92 92 93 92 92 92 92 92 93 94 94 94 95 95 95 95 95 95 95 94 93 92 91 91 91 91 91 90 90 90 89 88 87 87 87 87 86 87 86 85 85 85 85 84 83 83 82 81 79
102 100 99 99 100 100 101 101 102 103 104 103 102 102 102 101 102 103 103 102 102 101 99 100 100 101 101 100 99 98 97 97 98 98 96 94 93 92 92 92 91 91 91 92 92 93 93 93 94 94 94 93 93 94 94 93 92 91 90 89 89 89 89 88 88 88 88 88 86 85 85 85 85 85 85 84 83 83 83 83 82 81 81 80 79 77
102 100 99 98 98 99 99 99 100 102 102 101 101 101 101 102 102 102 101 100 101 101 100 99 99 100 100 98 97 96 95 95 95 95 94 94 93 92 91 90 89 89 89 89 90 91 91 91 91 92 91 91 91 91 91 90 89 88 87 87 87 87 86 86 86 86 86 85 84 83 83 82 83 83 83 82 82 82 82 81 80 80 79 78 77 75
100 100 99 99 99 100 101 101 102 103 102 102 102 101 101 101 101 101 100 99 99 100 100 99 98 97 97 96 93 91 90 90 91 90 89 89 89 89 89 88 88 87 86 87 87 88 89 89 89 89 89 88 88 88 87 86 85 85 85 85 84 84 84 84 84 84 83 82 81 81 81 81 81 82 81 81 80 80 80 79 78 78 78 77 75 74
100 100 101 101 101 102 103 104 104 104 104 104 105 104 103 102 101 101 101 99 98 98 97 96 94 93 93 92 90 88 86 86 86 85 84 84 85 86 86 86 86 85 84 84 84 85 86 86 85 85 85 84 84 83 82 82 82 82 82 82 81 81 80 80 81 81 80 79 78 78 79 79 80 80 79 79 79 78 77 77 77 77 76 75 74 74
100 100 100 100 100 99 101 102 102 101 101 102 102 103 102 101 100 100 99 98 97 96 95 93 92 90 90 90 89 87 85 85 85 83 82 82 82 82 83 83 82 82 81 80 80 81 81 81 80 80 80 79 79 79 78 78 78 79 78 78 77 77 77 77 77 78 78 77 76 76 77 77 78 78 77 77 76 75 75 75 75 75 75 74 73 73
99 99 98 97 97 96 96 97 96 96 96 97 98 98 98 97 97 97 97 95 94 93 92 92 91 90 89 88 88 86 84 83 83 81 80 79 79 79 79 79 78 78 78 78 77 77 77 76 76 76 75 75 74 74 74 74 74 74 74 74 73 73 73 73 74 75 75 74 74 74 75 75 75 75 75 74 74 73 73 74 74 74 74 73 73 72
98 98 96 94 93 93 93 92 89 88 89 91 92 92 90 90 89 90 92 92 90 89 88 87 87 87 86 85 85 83 81 79 80 79 77 76 77 77 77 76 75 75 75 75 75 74 74 73 72 72 71 71 70 70 70 70 70 70 70 70 70 70 70 71 72 73 73 72 72 72 72 73 73 73 73 72 71 71 72 72 72 72 73 73 72 71
99 97 95 92 90 90 90 88 85 82 81 83 87 88 87 85 83 83 84 86 86 85 84 83 82 83 83 83 82 80 77 76 77 78 76 75 75 75 74 73 73 72 72 71 71 71 70 70 69 69 68 68 67 67 67 67 67 67 67 68 68 67 68 69 70 70 70 70 70 69 70 70 71 70 70 69 69 70 70 71 71 71 72 72 72 71
100 97 94 91 88 86 86 85 83 80 76 76 80 82 84 84 83 81 80 80 81 81 81 80 79 80 81 82 83 81 76 73 74 75 75 74 74 73 72 71 71 70 70 69 68 68 67 66 66 66 65 64 64 64 64 64 65 65 65 65 65 65 66 67 68 68 68 67 67 67 67 68 68 68 67 67 68 68 69 69 70 70 71 71 71 70
96 94 91 88 85 83 82 81 80 78 75 73 74 75 77 79 79 78 77 77 76 76 77 76 75 74 75 77 80 81 78 74 72 72 72 72 72 71 70 69 68 67 67 66 65 64 64 63 62 62 61 60 60 61 61 62 62 62 62 62 63 63 64 65 65 65 64 64 64 65 65 65 65 65 66 66 67 67 67 68 69 69 69 70 70 69
Wind_Direction
287 286 285 284 283 282 282 281 280 280 279 279 278 277 278 278 278 278 277 276 276 276 276 276 276 274 274 275 273 273 274 274 273 272 272 270 269 269 269 269 269 268 268 268 268 268 268 268 268 268 268 269 269 269 269 269 269 269 269 269 269 269 269 268 268 268 268 268 268 268 268 268 268 268 268 268 268 267 267 267 267 267 267 266 266 265
288 287 286 285 284 283 283 282 281 281 280 280 279 279 279 279 280 279 279 279 279 277 277 277 276 275 275 275 274 272 273 274 274 272 271 271 270 269 270 269 269 268 268 268 268 268 268 269 269 269 269 269 269 269 269 269 269 269 269 269 269 269 269 268 268 268 268 268 269 269 269 269 268 268 268 268 268 268 268 268 268 268 268 267 267 267
290 288 287 286 286 285 284 284 284 284 283 283 283 283 282 282 282 281 280 280 280 279 278 278 277 276 277 276 275 275 273 274 275 274 272 271 271 271 271 270 269 269 269 269 269 269 269 269 269 269 269 269 269 268 268 269 269 269 269 269 269 269 269 269 269 269 270 270 270 270 270 270 270 270 270 270 270 270 270 270 270 270 269 269 269 268
291 290 289 288 287 287 287 286 286 286 285 285 284 284 283 283 283 282 281 281 281 280 279 279 279 279 279 277 276 276 275 275 276 275 273 272 272 272 271 270 270 270 270 270 270 270 270 271 270 270 270 270 270 270 270 270 270 271 271 271 271 270 270 271 271 271 271 271 272 272 272 272 272 272 272 272 272 273 273 273 272 272 272 272 272 271
292 291 290 289 288 288 288 287 287 286 285 285 285 284 284 284 284 283 283 284 283 282 280 280 280 281 280 279 278 276 274 274 275 275 273 273 273 272 271 271 271 271 272 272 273 273 272 272 272 272 272 272 272 273 273 273 273 272 272 271 271 271 272 273 273 273 273 273 274 274 274 274 274 274 274 274 275 275 275 275 275 275 275 275 275 275
292 291 290 289 288 288 287 287 286 286 286 286 285 285 285 285 285 285 285 285 284 284 282 281 280 282 283 281 280 280 277 273 272 274 276 276 275 274 273 273 273 274 274 274 274 273 272 272 272 272 273 273 273 274 274 274 273 272 271 270 270 271 272 273 273 274 275 275 275 275 276 276 277 277 277 276 276 276 276 276 276 276 276 276 276 275
292 291 290 289 289 288 288 288 287 287 287 287 287 287 287 287 287 287 286 285 285 285 284 283 281 282 284 284 284 284 281 278 275 274 275 276 275 274 274 275 275 275 274 274 273 272 272 272 272 273 274 274 274 274 274 273 273 273 272 271 270 270 271 272 273 274 274 274 274 275 275 276 276 277 277 277 277 277 277 277 277 276 276 276 276 276
294 293 292 291 290 290 289 289 289 288 288 288 288 288 288 288 287 287 287 286 286 286 285 285 284 283 282 282 284 284 282 279 277 274 272 271 271 272 274 275 275 275 275 275 274 274 274 276 277 277 277 277 277 277 277 277 277 276 275 273 272 271 272 273 273 274 274 274 274 275 275 276 276 277 278 279 279 279 279 280 280 280 279 279 279 279
295 294 293 293 292 291 290 290 290 289 289 289 288 288 288 288 288 287 287 287 287 286 286 285 285 285 282 279 280 281 279 277 275 273 272 270 269 270 272 272 273 274 274 274 274 275 276 277 278 278 278 278 279 279 279 279 279 279 278 277 276 275 275 275 275 275 276 276 276 277 277 278 278 279 280 281 281 282 282 283 283 283 283 283 282 282
296 296 295 294 293 292 292 291 290 290 290 289 289 289 288 288 288 288 288 287 288 287 286 286 286 285 284 282 280 278 278 277 275 273 273 273 273 273 273 272 272 272 272 273 273 274 274 274 275 276 277 277 278 278 279 279 280 280 279 279 278 278 277 277 278 278 278 278 278 279 279 280 280 281 282 282 283 284 285 286 286 286 286 286 286 285
297 296 296 295 294 294 293 293 292 291 291 291 290 290 290 290 290 290 289 288 288 286 285 286 287 285 284 283 282 279 277 277 276 274 274 276 278 278 277 276 276 277 277 276 276 275 275 274 275 276 277 278 278 278 279 279 280 280 280 280 279 279 279 279 279 279 280 280 280 280 280 281 282 282 283 284 285 286 288 288 289 289 289 289 288 288
297 296 296 295 294 294 293 293 292 292 292 291 290 290 289 289 289 289 289 289 288 287 286 287 287 287 286 284 284 282 279 276 275 274 273 275 278 279 278 279 280 281 281 280 280 279 279 278 278 278 278 279 279 279 279 280 280 280 280 280 280 280 280 281 281 281 281 281 281 281 281 282 283 284 285 286 287 288 289 290 290 290 290 290 290 290
299 298 297 296 295 294 293 292 292 291 290 289 289 288 287 287 287 287 287 287 287 286 287 287 287 288 288 286 285 284 281 278 277 275 273 273 274 275 276 278 280 280 280 281 281 281 281 280 279 279 279 280 280 280 280 281 281 281 280 280 280 280 281 281 281 281 282 282 282 282 282 283 284 285 286 287 288 289 290 290 291 291 291 291 291 291
303 302 300 299 297 296 295 294 293 292 292 291 290 289 288 287 287 287 287 287 286 286 287 286 286 287 286 285 284 282 282 281 280 279 277 275 273 273 276 278 278 278 279 280 281 281 281 281 281 280 280 280 280 281 281 282 282 282 282 281 281 281 282 282 282 282 282 282 282 283 284 285 286 286 287 288 289 290 290 291 291 291 291 291 291 291
306 304 302 301 300 299 298 296 295 295 294 293 293 292 291 291 291 290 289 288 288 289 290 288 288 287 284 283 282 280 280 281 281 281 281 280 278 278 279 279 279 279 280 280 280 281 281 281 281 281 281 281 281 282 282 282 282 282 282 282 282 283 283 283 283 283 283 283 283 284 285 286 286 287 288 289 289 290 291 291 291 291 291 291 291 291
310 308 305 303 302 301 300 298 298 297 296 295 295 294 294 293 293 293 292 291 290 291 292 290 290 288 286 284 282 280 280 281 283 283 283 282 282 281 280 279 280 281 281 280 280 280 281 282 282 282 282 282 282 282 282 282 282 283 283 283 284 284 284 284 284 284 284 284 285 285 286 287 287 288 289 290 290 291 291 291 291 291 291 291 291 291
315 313 310 308 306 304 303 302 301 300 299 298 297 296 296 295 295 295 294 293 292 293 293 292 290 290 288 285 282 283 285 286 286 286 286 286 286 284 283 282 282 282 281 280 280 281 281 282 282 282 282 282 282 282 282 283 283 283 283 284 284 284 284 284 284 284 284 285 285 286 287 288 289 289 290 291 291 291 291 291 291 291 291 291 291 291
322 319 316 314 313 311 309 308 307 306 305 303 301 300 299 298 298 297 296 295 294 294 294 293 292 292 289 284 281 285 288 289 289 288 289 289 289 288 286 284 282 281 280 280 280 281 281 282 282 282 282 283 283 283 283 283 283 283 283 283 284 284 284 284 284 285 285 286 287 287 288 289 290 290 290 291 291 291 291 291 291 291 291 291 291 291
328 326 322 320 320 319 316 315 315 314 313 311 308 307 306 305 303 303 301 299 297 296 296 292 292 295 292 286 286 289 290 290 291 292 292 291 290 288 286 284 282 281 281 281 281 281 282 282 283 283 283 283 284 284 284 284 284 284 284 284 284 284 284 285 285 285 286 287 288 288 289 289 290 290 290 291 291 291 291 291 291 291 291 291 291 291
327 327 324 321 321 321 320 319 319 319 319 318 315 314 314 312 311 311 310 306 304 304 300 293 292 294 291 289 291 292 291 291 292 294 295 294 292 289 287 285 284 283 283 282 282 282 282 283 283 283 284 284 284 284 284 284 284 284 284 284 285 285 285 285 286 286 287 288 289 289 290 290 290 291 291 291 292 292 292 292 292 292 292 292 292 291
324 324 324 321 320 320 320 320 319 319 320 319 317 317 316 315 314 314 314 312 311 311 307 301 302 302 292 289 292 292 290 290 292 293 295 294 293 292 290 289 287 286 285 284 283 283 283 283 283 283 284 284 284 284 284 284 284 284 284 285 285 285 286 286 287 287 288 289 290 290 291 291 292 292 292 292 292 292 292 292 292 293 292 292 292 291
321 321 321 320 318 318 319 319 318 318 319 318 318 317 316 316 316 314 313 312 311 312 309 306 318 321 300 293 295 296 293 292 293 295 295 295 295 294 293 292 290 288 287 286 285 284 284 283 283 284 284 284 284 285 285 285 284 284 285 286 286 286 286 287 288 288 289 290 291 291 292 292 293 293 293 293 293 293 293 293 293 293 293 292 291 291
319 319 319 318 317 317 317 316 315 316 317 316 317 316 315 316 315 314 314 311 310 312 307 303 313 316 303 298 299 299 297 295 295 295 296 295 294 294 293 292 291 290 289 288 287 286 285 285 285 285 285 285 285 285 285 285 285 286 286 286 287 287 287 288 289 289 290 291 292 292 292 293 293 293 294 294 294 294 294 294 294 293 293 292 291 291
317 317 317 316 314 314 315 313 313 314 314 315 316 314 313 313 312 311 311 308 309 310 305 304 308 304 300 299 300 299 296 294 294 294 294 293 292 292 292 291 291 290 290 289 287 286 286 286 286 286 286 286 286 286 286 286 286 287 287 287 287 288 288 289 290 290 291 291 292 292 293 293 293 294 294 294 295 295 295 295 294 294 293 292 292 291
314 314 314 312 310 310 310 308 309 309 309 311 312 310 310 310 307 307 306 304 306 305 303 306 307 302 301 302 300 297 294 293 293 294 293 291 291 291 290 290 290 290 290 289 287 287 287 287 287 287 287 287 287 287 287 287 287 287 288 288 288 289 289 290 290 291 291 292 292 293 293 293 293 294 294 295 295 296 296 295 294 294 293 293 292 292
313 313 312 310 309 309 308 307 306 305 307 309 308 308 309 307 306 307 305 303 305 302 302 307 305 301 305 305 300 297 294 294 296 295 294 292 291 291 290 290 290 290 289 288 288 288 288 288 288 288 288 287 287 287 287 288 288 288 288 289 289 289 290 290 291 291 292 292 292 293 293 293 294 294 295 296 296 296 296 295 294 294 293 293 293 293
311 313 311 309 309 310 309 309 306 306 308 309 308 309 308 306 306 305 303 305 307 302 303 307 302 300 306 305 299 296 295 297 298 296 295 294 292 291 290 290 290 290 289 288 288 289 288 288 288 288 288 288 288 288 288 288 288 288 288 289 289 289 290 290 291 292 292 292 292 293 293 294 294 295 296 296 296 296 296 295 295 294 294 294 294 294
310 312 311 307 308 310 310 308 306 306 308 310 310 310 309 307 306 303 303 306 306 301 302 305 301 300 305 302 297 295 295 297 297 296 295 294 293 292 290 290 289 288 287 288 288 288 288 288 288 288 288 288 288 288 288 288 288 288 288 289 289 290 290 291 291 292 292 292 293 293 294 294 295 296 296 297 296 296 296 295 295 295 295 295 295 295
310 312 310 306 307 309 309 306 305 306 308 309 310 310 310 308 304 302 304 306 304 301 302 303 300 302 306 301 296 296 297 298 298 297 296 295 294 293 293 292 290 288 287 287 287 287 287 288 288 288 288 288 288 288 288 288 288 288 289 289 290 290 291 291 292 292 292 292 293 294 294 295 296 296 297 296 296 296 296 296 296 296 296 296 296 295
310 312 310 306 306 308 308 305 304 305 306 307 308 309 308 305 302 303 305 305 302 301 302 302 300 302 304 300 297 298 298 298 298 298 297 295 295 295 295 294 292 291 290 289 288 288 288 288 288 288 288 288 288 288 288 288 288 289 289 290 290 291 291 291 292 292 292 293 294 294 295 295 296 296 296 296 296 297 296 296 297 297 297 297 296 296
310 310 309 306 305 308 308 303 303 304 304 304 307 307 303 301 301 304 304 304 303 302 302 301 301 302 301 298 297 298 298 298 298 297 296 295 295 295 295 294 293 293 293 291 290 289 289 289 289 289 288 288 288 288 288 288 289 289 290 290 290 291 291 291 291 292 293 293 294 295 295 296 296 296 296 297 297 297 297 297 297 298 298 297 297 297
309 308 308 305 304 306 306 302 302 303 301 303 305 302 299 299 301 302 302 302 302 301 300 300 301 301 299 297 297 297 298 298 297 296 295 295 295 294 293 293 292 292 292 291 290 290 289 289 289 288 288 288 288 288 288 289 289 289 289 290 290 290 291 291 292 292 293 294 295 295 296 296 297 297 297 297 298 298 298 298 298 298 298 298 298 297
308 307 306 304 303 305 305 302 302 301 301 303 302 298 297 299 299 299 300 300 300 299 299 300 300 299 298 297 297 297 297 297 296 296 296 296 295 294 293 293 293 292 291 291 290 290 289 289 288 288 288 288 288 288 288 289 289 289 289 290 290 290 291 292 292 293 294 294 295 295 296 297 297 297 297 298 298 298 298 298 298 298 298 298 298 297
306 305 304 303 303 304 304 303 302 301 302 302 300 298 298 299 298 299 299 299 298 297 298 298 298 297 297 297 297 296 296 296 296 296 296 295 294 293 293 293 292 292 292 291 291 291 290 289 289 289 288 288 288 288 288 288 289 289 289 290 290 291 292 292 293 294 294 294 295 296 297 297 297 297 298 298 298 298 298 298 298 298 298 298 298 297
306 305 304 303 303 304 304 304 302 302 303 302 299 299 299 299 299 300 299 298 298 297 297 297 297 297 297 296 296 295 295 295 295 296 296 294 294 293 293 293 292 291 291 291 291 291 290 289 289 288 288 288 288 288 288 289 289 289 290 290 291 291 292 293 293 294 294 294 296 297 296 296 297 298 298 298 298 298 298 298 298 298 298 298 298 298
305 304 304 304 303 304 305 303 302 302 303 301 300 300 300 300 300 299 299 298 297 297 297 297 297 297 296 296 295 295 295 295 295 295 294 293 293 293 293 293 292 292 291 291 290 290 290 289 289 289 289 288 288 288 289 289 289 289 290 290 291 292 293 293 294 294 294 295 296 297 296 297 297 298 298 298 298 298 298 298 298 298 298 298 298 298
304 304 304 303 303 304 304 303 302 302 301 300 300 300 300 300 299 298 297 296 295 295 295 296 296 295 295 295 295 295 295 294 294 294 294 293 293 293 293 293 292 291 291 290 290 289 289 289 289 289 289 289 289 289 289 289 289 289 290 291 292 292 293 294 294 294 295 296 296 296 296 297 298 297 297 297 297 297 297 298 298 298 298 298 298 298
303 303 303 303 304 304 303 302 302 301 301 300 300 300 300 299 298 297 295 295 295 295 295 295 295 295 295 295 295 295 295 295 295 295 294 293 293 293 292 292 291 291 291 291 290 290 289 289 289 289 289 289 289 289 289 289 290 290 291 292 292 293 294 293 293 294 295 296 295 295 296 297 297 297 297 297 297 297 297 297 298 298 298 298 298 298
304 304 304 304 304 304 302 301 302 301 300 300 300 300 299 299 298 297 296 296 296 296 296 296 296 296 296 296 296 296 296 295 295 295 294 293 293 293 292 292 292 291 291 291 290 290 290 289 289 289 289 289 289 289 290 290 290 291 292 292 293 293 293 293 293 294 295 295 294 295 296 296 296 296 296 296 296 296 297 297 297 298 298 298 298 298
306 305 305 304 304 303 302 301 301 301 300 301 301 301 300 299 298 297 296 297 298 297 297 297 297 297 297 297 297 297 297 297 297 296 295 294 293 293 292 292 292 291 291 290 290 290 289 289 289 289 289 289 289 290 290 290 290 291 291 292 292 292 292 292 293 293 293 293 294 294 295 295 295 295 295 295 296 296 297 297 297 298 298 297 298 298
306 306 305 305 304 303 302 302 302 301 301 301 301 301 300 300 298 297 297 298 298 297 297 297 297 297 297 296 296 297 297 297 297 296 295 294 293 293 292 292 292 291 291 291 290 290 289 289 289 289 289 289 290 290 290 289 290 290 290 291 291 291 291 292 292 292 293 293 293 294 294 294 294 295 295 295 296 297 297 297 297 297 297 297 298 299
307 307 306 305 305 304 303 303 302 301 301 301 301 300 300 299 297 297 297 298 298 298 297 297 296 296 296 296 296 296 296 296 296 295 295 295 294 294 293 293 292 292 291 291 290 290 289 289 289 289 289 289 289 288 288 288 289 289 290 290 290 290 291 291 292 292 292 292 293 293 294 294 294 294 294 295 296 297 296 296 297 297 297 298 298 299
308 308 307 306 305 304 304 303 302 300 300 301 300 299 299 298 297 298 298 298 298 298 297 297 296 296 296 296 296 296 296 296 295 295 295 295 295 294 293 292 292 291 290 290 290 289 289 288 288 288 287 287 287 287 287 288 288 289 289 290 290 290 291 291 291 291 291 292 292 293 293 293 294 294 294 295 296 296 296 297 297 297 297 298 299 300
309 309 309 308 307 306 306 305 303 302 303 302 301 301 300 300 299 299 300 300 299 298 298 298 298 298 297 297 297 296 296 295 295 295 294 294 294 294 293 292 291 290 290 289 288 288 287 287 286 286 286 286 286 287 287 288 289 289 289 289 290 290 290 290 290 290 291 291 292 292 293 293 293 294 294 295 295 296 296 297 297 297 298 299 300 301
311 310 309 308 307 307 305 304 303 303 303 303 302 302 302 302 302 302 302 302 301 300 300 300 300 300 299 299 299 298 298 297 297 296 295 295 294 293 293 292 291 290 289 288 287 287 286 286 286 286 287 287 287 288 288 289 289 289 289 289 289 289 289 289 290 290 290 291 291 292 292 293 293 294 294 295 295 296 296 297 297 298 299 300 301 302
311 310 308 307 306 305 303 302 302 302 302 301 301 302 302 303 303 302 302 302 302 302 302 302 302 302 302 301 301 300 300 300 299 297 296 295 294 293 292 291 291 291 290 290 289 289 288 288 288 288 288 288 289 289 289 289 288 288 288 288 288 288 288 289 289 289 289 290 291 292 292 292 293 294 294 294 295 296 296 297 298 298 299 301 301 302
311 310 309 307 306 305 303 302 303 303 302 302 302 302 302 303 303 302 302 302 302 303 303 303 303 303 303 302 301 300 300 300 299 298 297 297 296 296 295 294 294 294 293 293 292 291 291 290 290 290 290 289 289 289 288 288 288 288 288 288 287 287 288 288 288 289 289 290 291 291 292 292 293 293 294 295 295 296 297 297 298 299 300 301 301 302
313 311 310 309 308 307 306 305 305 305 304 303 302 302 301 301 301 301 301 301 302 302 302 302 302 302 302 301 301 301 301 301 301 300 300 300 300 299 298 298 297 296 295 295 294 293 293 292 292 292 291 290 290 289 288 288 288 288 287 287 287 287 288 288 288 288 289 290 290 291 292 292 293 293 294 295 296 296 297 298 299 300 301 301 301 302
315 313 313 312 311 310 308 308 307 307 306 305 304 303 303 303 302 302 301 302 302 303 303 304 304 303 303 303 302 302 303 304 303 302 303 302 301 300 300 300 299 299 298 297 296 296 295 294 294 293 292 291 291 290 290 289 288 288 287 287 287 288 288 288 288 288 289 290 291 291 292 292 292 293 294 296 296 297 298 299 300 300 301 301 301 302
316 315 315 314 313 312 311 310 309 309 309 306 304 304 304 304 305 305 304 304 304 304 304 304 304 304 303 303 303 303 304 305 304 303 303 303 302 302 302 301 301 300 299 298 298 297 296 295 294 293 293 292 292 291 290 289 288 288 288 288 288 288 288 288 288 288 289 290 291 291 292 292 293 294 295 296 297 298 299 300 300 301 301 301 301 302
316 316 315 314 314 313 311 310 310 310 309 308 305 304 303 303 304 305 305 304 304 303 303 303 303 303 303 302 303 304 305 306 305 304 303 303 303 302 302 301 300 300 299 298 298 297 297 296 296 295 295 294 294 292 291 290 289 289 289 289 289 288 288 288 288 289 291 291 291 291 292 293 294 295 296 296 297 298 299 300 300 300 301 301 301 302
Height
10561 10559 10557 10556 10554 10552 10550 10549 10548 10546 10545 10545 10544 10542 10540 10539 10539 10537 10534 10534 10535 10533 10529 10529 10529 10524 10521 10522 10525 10525 10518 10515 10519 10519 10515 10512 10510 10508 10507 10506 10505 10503 10502 10501 10500 10499 10499 10497 10496 10496 10495 10495 10494 10493 10492 10491 10491 10491 10489 10488 10487 10485 10483 10480 10478 10476 10475 10474 10474 10473 10472 10471 10469 10467 10466 10465 10465 10464 10462 10460 10458 10457 10456 10455 10454 10452
10556 10554 10552 10551 10549 10547 10545 10544 10542 10541 10540 10539 10538 10537 10535 10533 10533 10532 10528 10527 10528 10527 10523 10524 10522 10516 10515 10516 10516 10519 10515 10508 10510 10511 10507 10503 10502 10500 10499 10498 10496 10495 10494 10493 10492 10491 10490 10489 10488 10488 10487 10486 10485 10484 10483 10482 10482 10481 10480 10478 10477 10474 10471 10469 10467 10465 10465 10464 10463 10462 10461 10459 10457 10455 10454 10454 10452 10450 10449 10447 10445 10444 10443 10441 10439 10437
10550 10549 10547 10545 10544 10542 10540 10538 10537 10536 10534 10533 10532 10531 10529 10527 10527 10526 10523 10522 10522 10520 10518 10518 10516 10509 10509 10509 10508 10511 10511 10504 10502 10502 10499 10496 10494 10492 10491 10489 10487 10486 10486 10485 10484 10484 10483 10481 10480 10480 10479 10478 10477 10475 10474 10474 10473 10472 10471 10469 10466 10464 10461 10459 10457 10456 10455 10454 10453 10451 10449 10447 10445 10444 10443 10442 10439 10437 10435 10434 10433 10431 10428 10426 10424 10422
10545 10544 10542 10540 10538 10536 10535 10533 10532 10530 10529 10528 10526 10525 10524 10522 10521 10520 10517 10516 10516 10514 10512 10512 10510 10504 10502 10502 10502 10504 10504 10500 10497 10494 10491 10488 10487 10485 10483 10481 10479 10478 10478 10478 10477 10477 10476 10474 10472 10471 10470 10469 10467 10467 10466 10465 10465 10463 10461 10459 10457 10454 10451 10449 10448 10447 10445 10444 10442 10440 10438 10436 10435 10433 10432 10430 10428 10426 10423 10422 10420 10418 10415 10411 10409 10408
10541 10539 10537 10535 10533 10532 10530 10528 10527 10525 10524 10522 10521 10520 10518 10517 10516 10515 10512 10510 10510 10508 10506 10508 10506 10499 10495 10494 10495 10497 10498 10496 10491 10486 10483 10482 10480 10478 10475 10473 10472 10472 10472 10471 10469 10468 10468 10465 10463 10463 10462 10461 10459 10459 10457 10456 10456 10454 10452 10450 10447 10445 10442 10440 10438 10437 10436 10434 10432 10430 10428 10426 10424 10423 10422 10420 10418 10415 10412 10410 10408 10406 10403 10399 10396 10394
10536 10534 10532 10531 10529 10527 10526 10524 10522 10521 10519 10517 10516 10514 10513 10511 10510 10509 10508 10505 10504 10502 10499 10501 10504 10497 10488 10485 10488 10489 10490 10489 10486 10480 10476 10475 10473 10470 10468 10467 10466 10466 10466 10465 10463 10461 10459 10457 10456 10456 10455 10454 10452 10451 10449 10448 10447 10445 10443 10441 10439 10437 10434 10432 10430 10427 10426 10425 10423 10421 10418 10416 10414 10412 10410 10409 10407 10404 10402 10400 10397 10395 10392 10388 10384 10381
10532 10530 10528 10526 10524 10522 10521 10519 10517 10515 10514 10511 10510 10509 10507 10506 10505 10503 10502 10501 10499 10497 10493 10493 10498 10496 10485 10477 10480 10482 10480 10480 10479 10476 10472 10469 10466 10462 10461 10461 10460 10460 10459 10458 10456 10454 10452 10450 10449 10450 10448 10446 10445 10443 10441 10440 10438 10436 10435 10433 10431 10429 10427 10424 10422 10419 10418 10416 10414 10412 10409 10407 10404 10402 10400 10398 10396 10393 10390 10388 10385 10383 10381 10377 10372 10368
10527 10525 10523 10521 10519 10517 10516 10514 10512 10510 10508 10506 10504 10503 10502 10500 10499 10497 10496 10495 10494 10491 10487 10485 10489 10492 10484 10473 10473 10474 10471 10472 10472 10470 10469 10464 10460 10457 10456 10455 10454 10453 10453 10451 10449 10447 10446 10444 10441 10441 10440 10437 10436 10434 10432 10431 10430 10428 10426 10425 10423 10421 10419 10416 10413 10411 10409 10407 10405 10402 10400 10398 10395 10392 10390 10387 10384 10382 10379 10376 10372 10369 10367 10364 10361 10357
10522 10520 10518 10516 10514 10513 10510 10508 10507 10505 10503 10501 10499 10498 10496 10495 10494 10492 10491 10489 10489 10486 10482 10480 10481 10485 10480 10470 10470 10469 10463 10465 10466 10464 10463 10459 10455 10453 10450 10449 10448 10447 10446 10444 10442 10441 10441 10439 10435 10433 10431 10430 10428 10426 10424 10422 10421 10419 10417 10415 10414 10412 10410 10407 10404 10402 10400 10397 10395 10393 10390 10387 10384 10382 10379 10375 10373 10370 10367 10364 10360 10357 10353 10350 10347 10344
10518 10516 10513 10511 10509 10507 10505 10504 10502 10500 10498 10496 10494 10493 10490 10490 10488 10487 10486 10484 10484 10482 10476 10474 10474 10478 10475 10462 10462 10465 10457 10456 10459 10459 10457 10452 10449 10448 10444 10442 10441 10440 10439 10437 10435 10433 10434 10434 10430 10426 10424 10422 10421 10419 10416 10414 10412 10411 10408 10406 10404 10402 10400 10397 10394 10392 10390 10387 10385 10382 10379 10376 10374 10371 10368 10364 10361 10358 10355 10351 10347 10344 10340 10336 10333 10330
10513 10511 10509 10506 10505 10502 10500 10499 10497 10494 10493 10490 10489 10488 10485 10484 10483 10481 10480 10477 10478 10477 10472 10469 10466 10469 10469 10456 10450 10455 10452 10448 10450 10453 10452 10447 10443 10441 10437 10434 10433 10433 10431 10429 10427 10424 10425 10426 10424 10420 10417 10414 10412 10410 10408 10406 10404 10401 10399 10397 10395 10392 10390 10387 10384 10382 10379 10377 10374 10372 10369 10366 10363 10360 10357 10353 10349 10346 10343 10339 10334 10330 10326 10322 10319 10315
10508 10506 10504 10501 10499 10497 10495 10493 10492 10489 10487 10485 10483 10482 10479 10478 10477 10476 10473 10470 10470 10469 10466 10465 10460 10459 10460 10451 10441 10440 10440 10441 10443 10444 10445 10442 10439 10435 10429 10426 10426 10426 10423 10419 10417 10415 10415 10415 10414 10412 10410 10406 10404 10401 10399 10397 10395 10392 10390 10387 10385 10383 10380 10377 10374 10372 10369 10366 10363 10361 10358 10355 10352 10348 10345 10342 10338 10334 10330 10326 10322 10317 10313 10309 10305 10301
10504 10502 10499 10497 10494 10492 10490 10488 10486 10484 10481 10479 10476 10475 10473 10471 10472 10471 10467 10464 10463 10461 10461 10458 10454 10452 10449 10441 10433 10427 10424 10429 10434 10434 10436 10437 10435 10429 10424 10422 10420 10419 10416 10412 10408 10406 10405 10405 10404 10402 10401 10398 10395 10392 10389 10387 10385 10382 10380 10377 10375 10373 10370 10367 10364 10361 10359 10356 10352 10350 10347 10344 10340 10337 10333 10330 10326 10323 10318 10313 10309 10305 10300 10296 10291 10286
10500 10498 10494 10492 10489 10487 10485 10483 10481 10478 10474 10471 10469 10468 10466 10463 10465 10465 10461 10459 10456 10455 10456 10453 10448 10446 10441 10432 10424 10416 10411 10417 10424 10424 10425 10429 10428 10423 10419 10417 10413 10411 10409 10405 10400 10397 10395 10395 10394 10392 10391 10389 10386 10383 10380 10377 10374 10371 10369 10367 10364 10362 10359 10356 10354 10350 10348 10345 10342 10338 10335 10332 10329 10326 10322 10318 10315 10310 10305 10301 10296 10292 10287 10282 10277 10272
10496 10494 10491 10487 10485 10481 10479 10477 10476 10474 10470 10465 10462 10461 10458 10456 10457 10459 10456 10452 10450 10450 10449 10445 10441 10438 10433 10424 10413 10405 10403 10406 10412 10416 10416 10418 10419 10417 10414 10409 10405 10403 10401 10397 10392 10388 10386 10384 10384 10382 10380 10379 10376 10373 10370 10367 10364 10361 10358 10356 10353 10351 10348 10345 10342 10339 10337 10334 10331 10327 10324 10321 10317 10314 10310 10306 10303 10298 10292 10288 10283 10278 10274 10269 10264 10258
10491 10489 10487 10483 10480 10477 10474 10471 10469 10469 10467 10461 10457 10455 10452 10450 10449 10451 10450 10445 10444 10447 10445 10439 10435 10429 10423 10415 10401 10393 10396 10398 10402 10407 10408 10409 10410 10409 10407 10402 10398 10396 10392 10387 10383 10379 10376 10375 10373 10371 10369 10368 10365 10363 10360 10357 10354 10351 10348 10345 10343 10340 10337 10334 10331 10328 10325 10323 10320 10316 10312 10309 10305 10301 10298 10294 10290 10285 10280 10275 10270 10265 10260 10255 10250 10245
10487 10483 10481 10479 10476 10472 10468 10466 10463 10462 10461 10457 10452 10449 10447 10444 10442 10442 10443 10439 10436 10441 10441 10434 10429 10423 10414 10404 10392 10386 10389 10392 10394 10397 10399 10400 10401 10400 10397 10394 10391 10387 10382 10378 10373 10370 10368 10365 10363 10361 10359 10357 10355 10353 10350 10347 10344 10341 10339 10336 10332 10330 10327 10323 10321 10317 10314 10311 10309 10305 10300 10297 10293 10288 10285 10281 10276 10272 10267 10262 10256 10251 10246 10241 10235 10230
10485 10479 10474 10472 10472 10468 10463 10461 10457 10455 10453 10451 10446 10442 10440 10438 10436 10435 10435 10432 10429 10432 10435 10429 10424 10418 10403 10391 10390 10390 10387 10384 10383 10387 10391 10392 10391 10390 10387 10384 10381 10377 10372 10369 10366 10362 10359 10356 10354 10352 10350 10347 10345 10342 10340 10337 10334 10331 10328 10325 10322 10319 10316 10312 10310 10307 10303 10300 10297 10293 10289 10285 10280 10276 10272 10268 10263 10258 10253 10248 10242 10237 10232 10226 10221 10216
10482 10478 10471 10466 10465 10463 10459 10456 10453 10449 10446 10444 10440 10436 10433 10431 10430 10428 10426 10425 10422 10424 10428 10423 10420 10414 10391 10378 10387 10391 10384 10378 10375 10378 10383 10383 10381 10380 10377 10374 10371 10367 10364 10361 10358 10354 10351 10348 10345 10342 10340 10337 10335 10332 10330 10327 10324 10320 10317 10314 10312 10309 10305 10301 10298 10295 10292 10288 10285 10281 10277 10273 10268 10264 10260 10255 10251 10245 10239 10234 10228 10223 10218 10212 10206 10200
10479 10477 10471 10464 10459 10457 10454 10450 10448 10445 10440 10437 10433 10430 10427 10423 10421 10422 10420 10416 10414 10416 10418 10416 10419 10412 10385 10370 10381 10385 10377 10372 10371 10372 10373 10371 10370 10369 10366 10365 10362 10359 10356 10352 10349 10346 10342 10339 10336 10333 10330 10328 10324 10322 10319 10316 10313 10309 10306 10303 10301 10297 10294 10290 10286 10283 10279 10276 10272 10267 10264 10260 10254 10251 10246 10241 10237 10232 10225 10220 10214 10209 10203 10197 10191 10185
10475 10472 10469 10462 10456 10453 10449 10444 10442 10439 10436 10432 10426 10423 10421 10416 10413 10414 10414 10410 10406 10407 10407 10409 10416 10409 10381 10367 10373 10374 10369 10367 10366 10367 10366 10362 10359 10358 10356 10354 10353 10350 10346 10343 10340 10337 10333 10330 10327 10324 10321 10318 10315 10311 10308 10305 10302 10298 10295 10293 10290 10286 10282 10278 10274 10271 10267 10263 10259 10254 10249 10246 10240 10236 10232 10226 10223 10218 10210 10205 10201 10194 10188 10182 10175 10169
10471 10468 10465 10459 10453 10449 10445 10441 10436 10433 10431 10427 10421 10416 10413 10410 10405 10403 10406 10405 10400 10399 10395 10399 10411 10404 10379 10367 10366 10362 10358 10358 10359 10360 10358 10353 10350 10347 10345 10343 10341 10339 10336 10333 10330 10326 10323 10320 10317 10315 10311 10308 10305 10301 10298 10295 10291 10287 10285 10282 10278 10274 10270 10266 10262 10258 10254 10250 10246 10240 10235 10231 10226 10221 10217 10212 10208 10203 10196 10191 10186 10179 10173 10167 10160 10154
10465 10463 10461 10457 10451 10445 10441 10437 10432 10429 10426 10423 10418 10411 10406 10405 10399 10394 10394 10394 10395 10394 10385 10389 10404 10398 10376 10367 10363 10355 10349 10349 10351 10352 10350 10346 10342 10338 10336 10333 10330 10328 10326 10322 10319 10315 10312 10310 10307 10305 10301 10297 10294 10291 10287 10283 10279 10276 10273 10270 10266 10262 10258 10253 10249 10244 10240 10236 10232 10227 10221 10216 10211 10207 10202 10197 10193 10188 10181 10175 10170 10163 10157 10151 10145 10139
10459 10457 10455 10453 10448 10443 10438 10431 10427 10424 10420 10417 10414 10406 10400 10398 10393 10391 10387 10382 10386 10387 10376 10378 10394 10389 10374 10367 10361 10351 10344 10343 10344 10345 10342 10339 10335 10331 10328 10324 10321 10318 10315 10312 10308 10305 10302 10300 10297 10294 10290 10287 10283 10280 10275 10271 10267 10264 10261 10257 10253 10249 10245 10240 10235 10231 10226 10222 10218 10213 10207 10202 10197 10192 10187 10182 10177 10172 10165 10159 10154 10147 10141 10136 10130 10124
10453 10450 10447 10446 10444 10441 10436 10429 10423 10420 10416 10414 10410 10402 10396 10390 10383 10382 10380 10375 10378 10378 10368 10369 10376 10376 10370 10363 10354 10344 10337 10337 10338 10336 10334 10331 10327 10323 10319 10316 10314 10309 10305 10301 10296 10294 10291 10288 10285 10282 10278 10275 10271 10268 10263 10259 10255 10251 10247 10243 10239 10235 10231 10227 10221 10217 10212 10208 10204 10199 10192 10188 10183 10177 10172 10167 10162 10156 10150 10144 10138 10131 10125 10120 10114 10109
10448 10444 10438 10434 10435 10434 10429 10423 10416 10413 10412 10410 10405 10398 10392 10384 10375 10370 10366 10365 10366 10363 10364 10364 10358 10360 10366 10355 10341 10333 10327 10328 10330 10326 10324 10322 10318 10314 10309 10306 10304 10299 10294 10289 10285 10282 10279 10276 10273 10269 10266 10262 10258 10255 10251 10245 10241 10237 10233 10229 10225 10221 10217 10213 10207 10202 10197 10193 10189 10184 10177 10173 10169 10162 10157 10152 10146 10141 10134 10129 10123 10116 10110 10105 10099 10094
10442 10441 10432 10424 10424 10425 10421 10414 10406 10402 10403 10403 10398 10392 10385 10376 10368 10361 10355 10358 10351 10341 10353 10361 10343 10344 10360 10350 10329 10320 10316 10318 10320 10314 10311 10310 10306 10304 10300 10296 10294 10288 10282 10277 10273 10270 10267 10263 10260 10256 10252 10248 10245 10241 10237 10232 10227 10223 10219 10215 10210 10207 10203 10198 10193 10188 10182 10177 10174 10169 10162 10158 10154 10148 10141 10137 10131 10125 10120 10114 10108 10102 10096 10090 10084 10079
10433 10437 10429 10417 10417 10419 10414 10407 10399 10393 10394 10394 10388 10384 10376 10365 10358 10351 10349 10353 10340 10322 10337 10351 10334 10330 10346 10337 10318 10310 10308 10309 10308 10302 10297 10294 10290 10289 10288 10286 10283 10278 10272 10267 10262 10258 10254 10250 10247 10243 10239 10234 10230 10227 10222 10218 10213 10209 10205 10201 10196 10192 10188 10183 10179 10173 10166 10161 10158 10154 10148 10142 10138 10132 10127 10121 10116 10110 10105 10099 10093 10087 10081 10076 10071 10064
10420 10427 10423 10410 10411 10415 10408 10399 10393 10388 10388 10387 10381 10375 10366 10353 10344 10341 10343 10345 10331 10313 10321 10332 10324 10325 10330 10314 10300 10299 10297 10295 10294 10289 10283 10278 10274 10271 10269 10268 10266 10263 10261 10258 10252 10246 10242 10237 10233 10229 10225 10221 10216 10212 10207 10203 10199 10194 10190 10186 10181 10177 10172 10168 10164 10158 10151 10146 10143 10139 10134 10128 10123 10118 10112 10106 10101 10096 10090 10084 10079 10073 10068 10062 10057 10051
10408 10413 10411 10401 10400 10409 10404 10391 10386 10384 10382 10381 10377 10370 10357 10342 10333 10332 10333 10333 10320 10308 10309 10310 10309 10318 10317 10296 10285 10288 10285 10280 10279 10275 10268 10263 10259 10256 10252 10248 10244 10242 10243 10242 10239 10234 10228 10224 10219 10215 10211 10206 10202 10197 10192 10188 10183 10179 10176 10171 10166 10162 10156 10153 10148 10142 10136 10131 10127 10124 10119 10113 10109 10103 10097 10091 10086 10081 10076 10070 10065 10059 10054 10048 10042 10037
10400 10399 10399 10389 10385 10398 10397 10382 10378 10378 10374 10375 10374 10362 10347 10334 10329 10326 10322 10318 10309 10299 10298 10295 10293 10302 10302 10285 10275 10276 10273 10269 10266 10261 10255 10250 10247 10245 10239 10233 10228 10224 10221 10221 10221 10219 10215 10209 10204 10200 10196 10191 10187 10182 10177 10173 10168 10165 10161 10156 10151 10147 10141 10137 10133 10127 10122 10117 10112 10108 10103 10099 10094 10088 10082 10077 10072 10067 10061 10055 10050 10045 10039 10034 10028 10022
10394 10388 10388 10377 10370 10385 10386 10371 10369 10369 10364 10367 10365 10349 10337 10330 10324 10321 10314 10307 10297 10287 10284 10284 10281 10282 10281 10273 10267 10264 10260 10257 10253 10247 10242 10238 10235 10233 10227 10222 10218 10214 10207 10203 10203 10203 10201 10197 10190 10185 10181 10176 10172 10168 10163 10158 10154 10150 10145 10141 10137 10132 10127 10122 10117 10112 10107 10103 10097 10092 10088 10084 10079 10073 10067 10063 10057 10052 10046 10041 10036 10031 10025 10019 10013 10008
10387 10379 10376 10365 10357 10369 10371 10357 10355 10356 10354 10357 10349 10333 10328 10325 10316 10312 10308 10299 10287 10277 10273 10272 10269 10266 10261 10257 10254 10252 10248 10244 10239 10233 10228 10224 10220 10217 10213 10209 10205 10200 10196 10191 10188 10186 10185 10182 10176 10170 10166 10161 10157 10153 10148 10143 10139 10135 10130 10126 10122 10117 10112 10107 10102 10097 10093 10088 10083 10079 10074 10069 10063 10058 10053 10049 10043 10038 10032 10026 10022 10017 10011 10005 10000 9994
10377 10370 10365 10355 10346 10352 10356 10345 10336 10338 10341 10340 10330 10319 10317 10312 10304 10300 10297 10287 10274 10266 10263 10260 10256 10251 10247 10242 10237 10235 10234 10232 10227 10222 10215 10207 10202 10199 10199 10197 10191 10184 10181 10177 10172 10168 10166 10163 10159 10155 10150 10146 10142 10137 10132 10128 10124 10119 10115 10111 10106 10102 10097 10092 10087 10082 10077 10073 10069 10065 10060 10054 10048 10044 10039 10035 10029 10024 10018 10013 10008 10003 9998 9992 9986 9980
10366 10358 10351 10345 10335 10334 10339 10331 10319 10320 10324 10317 10308 10306 10303 10296 10291 10285 10279 10270 10259 10251 10247 10244 10240 10236 10231 10227 10222 10218 10218 10218 10216 10211 10201 10191 10186 10182 10181 10181 10177 10170 10166 10162 10157 10152 10147 10144 10141 10138 10134 10130 10126 10121 10117 10113 10109 10104 10099 10096 10091 10087 10082 10077 10072 10067 10062 10059 10055 10051 10045 10039 10034 10030 10025 10020 10015 10010 10005 10000 9995 9990 9984 9978 9972 9966
10353 10345 10338 10333 10325 10320 10321 10316 10304 10304 10307 10298 10289 10288 10286 10281 10277 10270 10262 10254 10244 10237 10232 10226 10222 10219 10213 10209 10206 10202 10201 10201 10203 10200 10188 10176 10172 10169 10165 10163 10160 10155 10151 10147 10142 10137 10131 10126 10123 10120 10117 10113 10109 10105 10101 10097 10093 10088 10084 10081 10077 10072 10067 10063 10057 10052 10048 10045 10041 10035 10030 10025 10021 10016 10011 10006 10001 9996 9991 9986 9981 9976 9971 9965 9959 9953
10343 10335 10327 10320 10316 10310 10304 10298 10292 10289 10287 10281 10276 10274 10271 10266 10260 10253 10247 10241 10232 10225 10221 10215 10209 10204 10199 10194 10191 10187 10183 10183 10187 10187 10175 10163 10159 10156 10151 10148 10144 10140 10136 10131 10127 10123 10117 10112 10107 10104 10100 10096 10092 10089 10086 10082 10077 10073 10069 10066 10062 10057 10053 10048 10042 10037 10034 10031 10026 10020 10015 10012 10008 10003 9997 9993 9988 9983 9978 9973 9968 9963 9957 9951 9945 9940
10334 10326 10317 10308 10305 10301 10289 10279 10277 10274 10267 10263 10261 10260 10256 10250 10243 10234 10226 10224 10220 10212 10205 10201 10196 10190 10185 10180 10176 10172 10167 10165 10169 10170 10161 10151 10146 10142 10137 10134 10130 10125 10121 10116 10111 10108 10103 10098 10094 10089 10085 10081 10077 10074 10070 10066 10062 10058 10055 10051 10047 10043 10039 10033 10028 10024 10021 10017 10011 10006 10003 9999 9994 9989 9984 9980 9975 9970 9965 9960 9955 9950 9944 9938 9932 9927
10322 10314 10306 10297 10291 10287 10275 10263 10260 10256 10248 10243 10243 10243 10239 10233 10226 10214 10203 10202 10204 10196 10186 10183 10179 10174 10168 10163 10159 10156 10152 10148 10151 10153 10147 10138 10133 10128 10122 10119 10116 10111 10107 10102 10096 10091 10087 10084 10080 10075 10070 10066 10063 10059 10055 10051 10046 10043 10040 10037 10033 10030 10024 10019 10015 10012 10008 10002 9998 9993 9990 9986 9981 9976 9971 9966 9962 9957 9952 9947 9941 9937 9931 9925 9920 9914
10308 10299 10292 10285 10279 10272 10261 10251 10247 10239 10229 10225 10224 10221 10219 10215 10207 10194 10185 10184 10186 10180 10170 10165 10161 10157 10151 10146 10142 10140 10136 10130 10129 10132 10130 10124 10119 10114 10108 10103 10101 10097 10093 10088 10083 10077 10072 10069 10064 10060 10056 10051 10048 10044 10040 10035 10032 10029 10026 10023 10020 10016 10010 10006 10003 9998 9993 9989 9985 9981 9977 9973 9968 9963 9958 9953 9949 9944 9939 9933 9928 9924 9918 9913 9907 9902
10291 10285 10278 10270 10263 10257 10246 10238 10234 10225 10213 10210 10208 10202 10199 10197 10188 10175 10168 10167 10166 10164 10157 10150 10145 10141 10135 10130 10127 10124 10122 10117 10110 10108 10109 10106 10103 10100 10095 10089 10085 10082 10077 10073 10068 10062 10057 10053 10049 10044 10040 10036 10033 10029 10024 10020 10017 10015 10012 10009 10005 10001 9997 9993 9989 9984 9979 9975 9971 9968 9964 9959 9954 9949 9944 9939 9935 9931 9926 9920 9916 9911 9906 9900 9895 9891
10270 10268 10264 10256 10248 10241 10233 10225 10219 10208 10198 10195 10193 10186 10180 10178 10170 10161 10156 10152 10147 10144 10141 10137 10131 10126 10120 10116 10113 10109 10108 10105 10097 10091 10089 10087 10083 10081 10078 10073 10069 10066 10061 10056 10051 10046 10041 10037 10033 10028 10025 10021 10017 10013 10009 10005 10003 10000 9997 9994 9990 9986 9982 9978 9974 9969 9965 9961 9958 9955 9950 9946 9941 9936 9931 9927 9923 9918 9912 9907 9903 9898 9893 9888 9883 9879
10252 10248 10245 10240 10231 10223 10218 10212 10203 10192 10186 10182 10177 10172 10166 10159 10151 10144 10141 10139 10132 10125 10121 10118 10114 10109 10103 10099 10098 10095 10091 10088 10083 10077 10073 10070 10065 10061 10058 10054 10050 10047 10044 10039 10033 10029 10024 10019 10016 10012 10009 10006 10002 9997 9994 9991 9988 9985 9982 9978 9975 9971 9968 9963 9959 9955 9951 9947 9945 9941 9937 9933 9928 9922 9918 9914 9910 9905 9900 9895 9890 9886 9880 9876 9871 9867
10239 10232 10227 10222 10214 10204 10198 10193 10183 10173 10169 10163 10156 10151 10148 10142 10134 10127 10122 10121 10117 10110 10103 10099 10097 10093 10086 10081 10079 10078 10075 10071 10067 10062 10057 10053 10049 10043 10038 10034 10029 10026 10025 10021 10016 10012 10007 10002 9999 9996 9993 9990 9986 9982 9979 9976 9973 9970 9967 9963 9960 9957 9953 9949 9945 9941 9937 9934 9932 9928 9923 9919 9915 9910 9906 9902 9897 9892 9887 9883 9878 9873 9868 9863 9859 9855
10228 10221 10213 10206 10200 10192 10182 10173 10166 10159 10155 10147 10137 10130 10125 10122 10117 10110 10104 10100 10097 10092 10086 10081 10079 10076 10070 10063 10058 10056 10054 10051 10046 10043 10038 10034 10030 10025 10019 10015 10010 10007 10005 10002 9999 9994 9990 9986 9983 9981 9977 9974 9970 9967 9965 9962 9958 9955 9952 9948 9946 9942 9939 9936 9932 9927 9924 9922 9919 9915 9911 9906 9902 9898 9894 9889 9885 9880 9875 9870 9865 9861 9856 9852 9847 9843
10213 10207 10202 10193 10186 10180 10171 10158 10151 10147 10143 10135 10125 10116 10109 10105 10101 10094 10087 10081 10076 10072 10067 10062 10058 10055 10051 10045 10039 10035 10034 10031 10026 10023 10020 10016 10012 10008 10002 9998 9994 9990 9987 9985 9982 9978 9974 9970 9968 9965 9962 9959 9956 9953 9950 9947 9944 9941 9938 9935 9932 9929 9926 9923 9918 9914 9911 9909 9907 9903 9899 9894 9890 9886 9882 9877 9873 9868 9863 9858 9853 9849 9844 9840 9836 9832
10199 10190 10185 10179 10170 10163 10156 10147 10141 10136 10127 10118 10110 10103 10096 10089 10084 10076 10068 10064 10060 10056 10050 10045 10040 10036 10032 10027 10022 10018 10019 10017 10011 10006 10004 10000 9996 9991 9986 9982 9979 9976 9972 9969 9965 9961 9958 9955 9952 9950 9947 9945 9942 9938 9935 9933 9930 9927 9924 9921 9918 9916 9913 9910 9905 9902 9899 9897 9895 9891 9887 9883 9879 9874 9869 9865 9861 9857 9852 9847 9842 9837 9832 9828 9825 9822
10186 10176 10169 10164 10156 10146 10137 10132 10130 10127 10117 10104 10094 10089 10085 10080 10075 10067 10056 10049 10046 10043 10039 10034 10029 10023 10018 10013 10007 10003 10003 10001 9995 9990 9988 9987 9981 9976 9971 9967 9964 9961 9958 9954 9950 9947 9943 9940 9938 9935 9932 9930 9928 9924 9921 9919 9917 9914 9911 9908 9905 9903 9900 9897 9893 9889 9887 9885 9883 9880 9876 9871 9866 9862 9858 9854 9850 9845 9840 9835 9831 9827 9821 9816 9813 9811
10169 10162 10155 10149 10143 10134 10124 10117 10115 10115 10111 10097 10081 10071 10067 10064 10063 10060 10051 10042 10035 10029 10024 10022 10017 10009 10002 9997 9993 9990 9991 9990 9983 9976 9974 9972 9968 9963 9959 9954 9950 9947 9943 9940 9936 9933 9930 9927 9924 9921 9919 9917 9914 9911 9908 9906 9903 9900 9897 9895 9892 9890 9887 9884 9880 9877 9875 9874 9871 9868 9864 9859 9854 9850 9847 9843 9839 9834 9829 9825 9820 9816 9811 9805 9802 9799
10153 10147 10140 10133 10128 10122 10112 10104 10098 10098 10099 10092 10078 10064 10055 10047 10044 10043 10040 10034 10027 10019 10013 10009 10006 10000 9991 9982 9975 9973 9977 9979 9974 9966 9961 9958 9953 9949 9946 9942 9938 9934 9930 9927 9924 9921 9917 9915 9912 9909 9907 9905 9902 9899 9896 9893 9890 9887 9885 9883 9880 9878 9875 9872 9868 9866 9864 9863 9860 9856 9852 9848 9843 9840 9836 9832 9828 9824 9819 9814 9809 9805 9801 9795 9791 9787
10141 10134 10127 10120 10115 10110 10102 10094 10087 10083 10082 10079 10072 10063 10053 10043 10036 10033 10029 10023 10018 10012 10005 10000 9997 9994 9988 9978 9966 9958 9957 9961 9961 9956 9952 9947 9941 9937 9934 9931 9928 9924 9920 9916 9913 9909 9906 9903 9900 9898 9896 9893 9890 9887 9883 9880 9878 9876 9873 9871 9869 9866 9863 9860 9857 9855 9854 9851 9848 9844 9841 9837 9833 9829 9825 9821 9818 9814 9809 9804 9799 9794 9790 9786 9781 9777